Skip Page Navigation
NASA JPL Caltech
NASA Logo - Jet Propulsion Laboratory + View the NASA Portal
+ Center for Near-Earth Object Studies
JPL Home Earth Solar System Stars & Galaxies Technology
JPL Solar System Dynamics
BODIES ORBITS EPHEMERIDES TOOLS PHYSICAL DATA DISCOVERY FAQ SITE MAP
JPL Small-Body Database Browser
Search: [ help ]  
213160 (2000 QY115)
Classification: Main-belt Asteroid          SPK-ID: 2213160
Ephemeris | Orbit Diagram | Orbital Elements | Mission Design | Physical Parameters | Discovery Circumstances | Close-Approach Data ]

[ show orbit diagram ]
Orbital Elements at Epoch 2459200.5 (2020-Dec-17.0) TDB
Reference: JPL 19 (heliocentric ecliptic J2000)
 Element Value Uncertainty (1-sigma)   Units 
e .1987415681635913 5.9514e-08  
a 2.175098915190285 9.225e-09 au
q 1.742816345874441 1.2992e-07 au
i 5.05793123529121 5.2702e-06 deg
node 8.409030009776043 5.8202e-05 deg
peri 334.64466079 5.8973e-05 deg
M 111.9764519283553 1.1774e-05 deg
tp 2458836.047321667401
(2019-Dec-18.54732167)
3.7088e-05 TDB
period 1171.701388464083
3.21
7.4541e-06
2.041e-08
d
yr
n .3072455179658903 1.9546e-09 deg/d
Q 2.607381484506128 1.1058e-08 au
  Orbit Determination Parameters
   # obs. used (total)      410  
   data-arc span      8505 days (23.29 yr)  
   first obs. used      1997-10-29  
   last obs. used      2021-02-10  
   planetary ephem.      DE441  
   SB-pert. ephem.      SB441-N16  
   condition code      0  
   norm. resid. RMS      .57484  
   source      ORB  
   producer      Otto Matic  
   solution date      2021-Apr-13 23:41:34  

Additional Information
 Earth MOID = .735083 au 
 Jupiter MOID = 2.79827 au 
 T_jup = 3.655 
[ show covariance matrix ]

Ephemeris | Orbit Diagram | Orbital Elements | Mission Design | Physical Parameters | Discovery Circumstances | Close-Approach Data ]

Physical Parameter Table
Parameter Symbol Value Units Sigma Reference Notes
absolute magnitude H 16.97   n/a MPCxxxxx  

213160 (2000 QY115)          Discovered 2000-Aug-26 by LINEAR at Socorro
Reference: 20090509/Numbers.arcLast Updated: 2009-05-11

[ show close-approach data ]
Ephemeris | Orbit Diagram | Orbital Elements | Mission Design | Physical Parameters | Discovery Circumstances | Close-Approach Data ]
ABOUT SSD CREDITS/AWARDS PRIVACY/COPYRIGHT GLOSSARY LINKS
FirstGov 2021-May-07 23:48 UT
(server date/time)  
NASA Home Page
Site Manager:   Ryan S. Park
Webmaster  Alan B. Chamberlin